• In Italy
  • List of Countries
  • For 7 days
  • Water Temperature
  • Satellite Maps
  • Weather Map
  • Weather Widgets
  • user-avatar
    Login

    Hourly Weather Kapan

    Today, 20 September, Thursday

    Time Temperature Precipitation Wind Pressure Humidity
    00:00 +18°C° 0 mm 1 mps 687 mmHg 85%
    01:00 +18°C° 0 mm 1 mps 687 mmHg 86%
    02:00 +16°C° 0 mm 1 mps 687 mmHg 86%
    03:00 +16°C° 0 mm 1 mps 687 mmHg 86%
    04:00 +16°C° 0 mm 1 mps 687 mmHg 87%
    05:00 +16°C° 0 mm 1 mps 688 mmHg 87%
    06:00 +16°C° 0 mm 1 mps 688 mmHg 87%
    07:00 +17°C° 0.1 mm 2 mps 688 mmHg 81%
    08:00 +18°C° 0.1 mm 2 mps 689 mmHg 74%
    09:00 +20°C° 0 mm 2 mps 689 mmHg 66%
    10:00 +21°C° 0 mm 2 mps 689 mmHg 63%
    11:00 +21°C° 0 mm 3 mps 689 mmHg 60%
    12:00 +22°C° 0 mm 3 mps 689 mmHg 57%
    13:00 +22°C° 0 mm 3 mps 688 mmHg 57%
    14:00 +22°C° 0 mm 3 mps 688 mmHg 58%
    15:00 +22°C° 0 mm 3 mps 688 mmHg 58%
    16:00 +21°C° 0 mm 3 mps 688 mmHg 62%
    17:00 +20°C° 0 mm 3 mps 687 mmHg 67%
    18:00 +19°C° 0 mm 2 mps 687 mmHg 72%
    19:00 +19°C° 0 mm 2 mps 687 mmHg 76%
    20:00 +18°C° 0 mm 2 mps 687 mmHg 79%
    21:00 +18°C° 0 mm 1 mps 687 mmHg 82%
    22:00 +18°C° 0 mm 1 mps 687 mmHg 82%
    23:00 +18°C° 0 mm 1 mps 687 mmHg 83%

    Tomorrow, 21 September, Friday

    Time Temperature Precipitation Wind Pressure Humidity
    00:00 +18°C° 0 mm 1 mps 687 mmHg 83%
    01:00 +16°C° 0 mm 1 mps 687 mmHg 84%
    02:00 +16°C° 0 mm 1 mps 687 mmHg 84%
    03:00 +16°C° 0 mm 1 mps 687 mmHg 85%
    04:00 +16°C° 0 mm 1 mps 687 mmHg 85%
    05:00 +16°C° 0 mm 1 mps 687 mmHg 85%
    06:00 +16°C° 0 mm 1 mps 687 mmHg 85%
    07:00 +18°C° 0 mm 1 mps 687 mmHg 76%
    08:00 +19°C° 0 mm 2 mps 688 mmHg 67%
    09:00 +21°C° 0 mm 2 mps 688 mmHg 59%
    10:00 +23°C° 0 mm 2 mps 688 mmHg 55%
    11:00 +24°C° 0 mm 2 mps 688 mmHg 50%
    12:00 +25°C° 0 mm 3 mps 688 mmHg 46%
    13:00 +26°C° 0.1 mm 3 mps 687 mmHg 46%
    14:00 +26°C° 0.1 mm 3 mps 687 mmHg 45%
    15:00 +26°C° 0.1 mm 3 mps 686 mmHg 45%
    16:00 +25°C° 0.2 mm 3 mps 686 mmHg 51%
    17:00 +23°C° 0.2 mm 2 mps 686 mmHg 58%
    18:00 +21°C° 0.2 mm 2 mps 686 mmHg 64%
    19:00 +20°C° 0.1 mm 2 mps 686 mmHg 69%
    20:00 +20°C° 0.1 mm 1 mps 686 mmHg 73%
    21:00 +19°C° 0.1 mm 1 mps 687 mmHg 78%
    22:00 +19°C° 0 mm 1 mps 687 mmHg 78%
    23:00 +19°C° 0 mm 1 mps 687 mmHg 79%

    Day after tomorrow, 22 September, Saturday

    Time Temperature Precipitation Wind Pressure Humidity
    00:00 +19°C° 0 mm 1 mps 687 mmHg 80%
    01:00 +18°C° 0 mm 1 mps 687 mmHg 80%
    02:00 +18°C° 0 mm 1 mps 687 mmHg 80%
    03:00 +18°C° 0 mm 1 mps 687 mmHg 80%
    04:00 +18°C° 0 mm 1 mps 687 mmHg 80%
    05:00 +18°C° 0 mm 1 mps 687 mmHg 81%
    06:00 +16°C° 0 mm 1 mps 687 mmHg 81%
    07:00 +19°C° 0 mm 1 mps 687 mmHg 73%
    08:00 +20°C° 0 mm 2 mps 687 mmHg 65%
    09:00 +23°C° 0 mm 2 mps 688 mmHg 57%
    10:00 +24°C° 0.1 mm 2 mps 688 mmHg 53%
    11:00 +25°C° 0.1 mm 2 mps 688 mmHg 48%
    12:00 +26°C° 0.1 mm 3 mps 688 mmHg 44%
    13:00 +26°C° 0 mm 3 mps 687 mmHg 44%
    14:00 +26°C° 0 mm 3 mps 687 mmHg 45%
    15:00 +26°C° 0 mm 3 mps 686 mmHg 45%
    16:00 +25°C° 0.1 mm 3 mps 686 mmHg 52%
    17:00 +24°C° 0.1 mm 3 mps 686 mmHg 60%
    18:00 +21°C° 0.1 mm 2 mps 686 mmHg 67%
    19:00 +21°C° 0.5 mm 2 mps 686 mmHg 71%
    20:00 +20°C° 0.5 mm 2 mps 687 mmHg 74%
    21:00 +20°C° 0.5 mm 2 mps 687 mmHg 78%
    22:00 +19°C° 0.2 mm 2 mps 687 mmHg 79%
    23:00 +20°C° 0.2 mm 1 mps 687 mmHg 80%

    23 September, Sunday

    Time Temperature Precipitation Wind Pressure Humidity
    00:00 +20°C° 0.2 mm 1 mps 687 mmHg 81%
    01:00 +20°C° 0 mm 1 mps 687 mmHg 82%
    02:00 +19°C° 0 mm 1 mps 686 mmHg 84%
    03:00 +19°C° 0 mm 1 mps 686 mmHg 85%
    04:00 +18°C° 0 mm 1 mps 686 mmHg 85%
    05:00 +18°C° 0 mm 1 mps 686 mmHg 85%
    06:00 +18°C° 0 mm 1 mps 686 mmHg 86%
    07:00 +19°C° 0 mm 1 mps 687 mmHg 78%
    08:00 +20°C° 0 mm 2 mps 687 mmHg 70%
    09:00 +21°C° 0 mm 2 mps 687 mmHg 62%
    10:00 +23°C° 0 mm 2 mps 687 mmHg 57%
    11:00 +24°C° 0 mm 2 mps 687 mmHg 51%
    12:00 +26°C° 0 mm 2 mps 687 mmHg 46%
    13:00 +26°C° 0 mm 2 mps 686 mmHg 45%
    14:00 +26°C° 0 mm 2 mps 686 mmHg 44%
    15:00 +27°C° 0 mm 3 mps 685 mmHg 42%
    16:00 +25°C° 0.2 mm 2 mps 685 mmHg 49%
    17:00 +24°C° 0.2 mm 2 mps 685 mmHg 55%
    18:00 +21°C° 0.2 mm 2 mps 685 mmHg 61%
    19:00 +22°C° 0.1 mm 1 mps 685 mmHg 65%
    20:00 +21°C° 0.1 mm 1 mps 685 mmHg 70%
    21:00 +20°C° 0.1 mm 1 mps 685 mmHg 74%
    22:00 +20°C° 0 mm 1 mps 685 mmHg 74%
    23:00 +19°C° 0 mm 1 mps 685 mmHg 74%

    24 September, Monday

    Time Temperature Precipitation Wind Pressure Humidity
    00:00 +19°C° 0 mm 1 mps 685 mmHg 75%
    01:00 +19°C° 0.1 mm 1 mps 685 mmHg 75%
    02:00 +19°C° 0.1 mm 1 mps 685 mmHg 75%
    03:00 +18°C° 0.1 mm 1 mps 685 mmHg 75%
    04:00 +16°C° 0.2 mm 0 mps 685 mmHg 75%
    05:00 +16°C° 0.2 mm 0 mps 685 mmHg 75%
    06:00 +16°C° 0.2 mm 0 mps 685 mmHg 76%
    07:00 +19°C° 0.1 mm 1 mps 686 mmHg 70%
    08:00 +21°C° 0.1 mm 1 mps 686 mmHg 64%
    09:00 +22°C° 0.1 mm 1 mps 687 mmHg 58%
    10:00 +23°C° 0.2 mm 2 mps 687 mmHg 52%
    11:00 +24°C° 0.2 mm 2 mps 687 mmHg 47%
    12:00 +25°C° 0.2 mm 2 mps 687 mmHg 42%
    13:00 +26°C° 0.1 mm 3 mps 686 mmHg 41%
    14:00 +26°C° 0.1 mm 3 mps 686 mmHg 40%
    15:00 +26°C° 0.1 mm 3 mps 686 mmHg 39%
    16:00 +25°C° 0 mm 3 mps 686 mmHg 44%
    17:00 +23°C° 0 mm 2 mps 686 mmHg 49%
    18:00 +21°C° 0 mm 2 mps 686 mmHg 54%
    19:00 +20°C° 0 mm 2 mps 686 mmHg 58%
    20:00 +20°C° 0 mm 1 mps 686 mmHg 63%
    21:00 +19°C° 0 mm 1 mps 686 mmHg 67%
    22:00 +19°C° 0 mm 1 mps 686 mmHg 68%
    23:00 +19°C° 0 mm 1 mps 686 mmHg 68%

    25 September, Tuesday

    Time Temperature Precipitation Wind Pressure Humidity
    00:00 +19°C° 0 mm 1 mps 685 mmHg 69%
    01:00 +18°C° 0 mm 1 mps 685 mmHg 68%
    02:00 +18°C° 0 mm 1 mps 685 mmHg 67%
    03:00 +18°C° 0 mm 1 mps 685 mmHg 67%
    04:00 +18°C° 0 mm 1 mps 685 mmHg 66%
    05:00 +18°C° 0 mm 1 mps 685 mmHg 65%
    06:00 +18°C° 0 mm 1 mps 685 mmHg 64%
    07:00 +20°C° 0 mm 1 mps 685 mmHg 55%
    08:00 +22°C° 0 mm 1 mps 685 mmHg 46%
    09:00 +25°C° 0 mm 1 mps 686 mmHg 37%
    10:00 +26°C° 0 mm 2 mps 686 mmHg 34%
    11:00 +27°C° 0 mm 2 mps 685 mmHg 30%
    12:00 +29°C° 0 mm 2 mps 685 mmHg 27%
    13:00 +29°C° 0 mm 3 mps 685 mmHg 27%
    14:00 +29°C° 0 mm 3 mps 684 mmHg 27%
    15:00 +29°C° 0 mm 3 mps 684 mmHg 28%
    16:00 +27°C° 0 mm 2 mps 684 mmHg 34%
    17:00 +25°C° 0 mm 2 mps 684 mmHg 41%
    18:00 +23°C° 0 mm 2 mps 683 mmHg 47%
    19:00 +21°C° 0 mm 2 mps 684 mmHg 53%
    20:00 +22°C° 0 mm 1 mps 684 mmHg 58%
    21:00 +21°C° 0 mm 1 mps 684 mmHg 64%
    22:00 +20°C° 0 mm 1 mps 684 mmHg 66%
    23:00 +20°C° 0 mm 1 mps 684 mmHg 68%
    Show more